User: anonymous   Login
Location: Dentlein
(49.1477°N, 10.4231°E)
Time: 18:34:46
(UTC+00:00)
Language:

Cosmos 1980 Rocket - Orbit

View from above orbital plane
View from above orbital plane
View from above satellite
View from above satellite

Ground track
Ground track

The orbit is defined by the following mean orbital elements,

1 19650U          26066.50334147 +.00000000 +00000-0 +15138-3 0 00002
2 19650  71.0001 156.0975 0013805   5.0416 355.0844 14.16150712    05
Epoch (UTC): 07 March 2026 12:04:48
Eccentricity: 0.0013805
inclination: 71.0001°
perigee height: 828 km
apogee height: 848 km
right ascension of ascending node: 156.0975°
argument of perigee: 5.0416°
revolutions per day: 14.16150712
mean anomaly at epoch: 355.0844°

The dashed part of the orbit path shows where the satellite is in the earth's shadow,  

DLR